Location: *
(58.7167°N, 26.1833°E)
Time: 23:31:38
(UTC+00:00)

Thor Agena Rocket - Pass Details

Date: 25 August 2019
Orbit: 760 x 807 km, 99.0° (Epoch: 17 September)

Event Time Altitude Azimuth Distance (km) Brightness Sun altitude
Rises 19:44:47 0° 19° (NNE) 3,279 7.2 -14.1°
Reaches altitude 10° 19:47:10 10° 24° (NNE) 2,354 6.4 -14.3°
Maximum altitude 19:52:15 53° 102° (ESE) 973 3.7 -14.7°
Enters shadow 19:55:55 19° 173° (S) 1,833 4.9 -15.0°
